Home > Weather > Davenport > Past weeks

Flag for USA Past Weather in Davenport, Iowa, USA — Yesterday and Last 2 Weeks

Now
87 °F

Passing clouds.


Feels Like: 95 °F
Forecast: 68 / 84 °F
Wind: 6 mph from Southeast

Location: Davenport Municipal Airport

Current Time: Aug 28, 2016 at 2:01:57 PM

Latest Report: Aug 28, 2016 at 12:52 PM


Visibility: 10 mi

Pressure: 30.16 "Hg

Humidity: 65%

Dew Point: 74 °F

Location of DavenportLocation

Past Weather in Davenport — Graph

°F

Davenport Temperature Yesterday

Maximum temperature yesterday: 83 °F (at 3:52 PM)
Minimum temperature yesterday: 67 °F (at 12:52 AM)
Average temperature yesterday: 75 °F

High & Low Weather Summary for the Past Weeks

 TemperatureHumidityPressure
High87 °F (Aug 18, 3:52 PM)100% (Aug 14, 6:52 AM)30.19 "Hg (Aug 14, 6:52 AM)
Low52 °F (Aug 22, 4:52 AM)47% (Aug 21, 3:52 PM)29.65 "Hg (Aug 20, 6:52 AM)
Average73 °F80%30.00 "Hg
* Reported Aug 13 12:52 PM — Aug 28 12:52 PM, Davenport, Weather by CustomWeather, © 2016

Note: Actual official high and low records may vary slightly from our data, if they occured in-between our weather recording intervals... More about our weather records

Advertising

Davenport Weather History for the Previous 24 Hours

Scroll right to see more
 ConditionsComfort  
Time TempWeatherWind HumidityBarometerVisibility
12:52 PM
Sun, Aug 28
87 °FPassing clouds.6 mph65%30.16 "Hg10 mi
11:52 AM84 °FPassing clouds.5 mph70%30.17 "Hg10 mi
10:52 AM83 °FSunny.6 mph74%30.17 "Hg10 mi
9:52 AM79 °FSunny.7 mph79%30.16 "Hg10 mi
8:52 AM74 °FSunny.6 mph88%30.17 "Hg10 mi
7:52 AM71 °FPartly sunny.6 mph93%30.16 "Hg10 mi
6:52 AM66 °FPassing clouds.3 mph96%30.14 "Hg8 mi
6:02 AM67 °FPassing clouds.3 mph97%30.14 "Hg10 mi
5:52 AM67 °FPassing clouds.6 mph93%30.12 "Hg10 mi
4:52 AM66 °FClear.5 mph96%30.11 "Hg10 mi
3:52 AM67 °FFog.5 mph93%30.10 "Hg5 mi
2:52 AM66 °FClear.3 mph96%30.10 "Hg10 mi
1:52 AM67 °FClear.No wind97%30.09 "Hg10 mi
12:52 AM68 °FClear.No wind96%30.09 "Hg10 mi
11:52 PM
Sat, Aug 27
70 °FClear.5 mph93%30.09 "Hg10 mi
10:52 PM74 °FPartly cloudy.7 mph88%30.08 "Hg10 mi
9:52 PM72 °FPassing clouds.6 mph91%30.05 "Hg10 mi
8:52 PM72 °FClear.6 mph91%30.03 "Hg10 mi
7:52 PM76 °FPartly sunny.3 mph85%30.02 "Hg10 mi
6:52 PM81 °FSunny.3 mph69%30.00 "Hg10 mi
5:52 PM82 °FSunny.9 mph65%30.00 "Hg10 mi
4:52 PM83 °FScattered clouds.8 mph63%29.99 "Hg10 mi
3:52 PM83 °FSunny.8 mph61%29.99 "Hg10 mi
2:52 PM81 °FPassing clouds.10 mph69%29.99 "Hg10 mi
Weather by CustomWeather, © 2016

See weather overviewHow to use our weather pages